SCP
0 0 0 0 0 0 0 0 0 0 0 0 0 0 0 0 0 0 0 0 0 0 0 0 1 1 0 0 0 0 0 0 0 0 0 0 0 0 0 0 0 0 0 0 0 0 0 0 0
0 0 0 0 0 0 0 0 0 0 0 0 0 0 0 0 0 0 0 0 0 0 0 0 1 1 0 0 0 0 0 0 0 0 0 0 0 0 0 0 0 0 0 0 0 0 0 0 0
0 0 0 0 0 0 0 0 0 0 0 0 0 0 0 0 0 0 0 0 0 1 1 1 1 1 1 1 0 0 0 0 0 0 0 0 0 0 0 0 0 0 0 0 0 0 0 0 0
0 0 0 0 0 0 0 0 0 0 0 0 0 0 0 0 0 0 0 0 0 0 1 1 1 1 1 1 1 0 0 0 0 0 0 0 0 0 0 0 0 0 0 0 0 0 0 0 0
0 0 0 0 0 0 0 0 0 0 0 0 0 0 0 0 0 0 0 0 0 1 1 1 1 1 1 1 1 1 1 1 0 0 0 0 0 0 0 0 0 0 0 0 0 0 0 0 0
0 0 0 0 0 0 0 0 0 0 0 0 0 0 0 0 0 0 0 0 0 1 1 1 1 1 1 1 1 1 1 1 1 0 0 0 0 0 0 0 0 0 0 0 0 0 0 0 0
0 0 0 0 0 0 0 0 0 0 0 0 0 0 0 0 0 0 0 0 1 1 1 1 1 1 1 1 1 1 1 1 1 1 0 0 0 0 0 0 0 0 0 0 0 0 1 1 1
0 0 0 0 0 0 0 0 0 0 0 0 0 0 0 0 0 0 1 1 1 1 1 1 1 1 1 1 1 1 1 1 1 1 1 1 0 0 0 0 0 0 0 0 0 1 1 1 1
0 0 0 0 0 0 0 0 0 1 1 1 1 0 0 0 1 1 1 1 1 1 1 1 1 1 1 1 1 1 1 1 1 1 1 1 0 0 0 0 0 1 1 1 1 1 1 1 1
0 0 0 0 0 0 0 0 0 1 1 1 1 1 1 1 1 1 2 2 1 1 1 1 1 1 1 1 1 1 1 1 1 1 1 1 1 0 0 0 0 1 1 1 1 1 1 1 1
0 0 0 0 0 0 0 0 0 1 1 1 1 1 1 1 1 2 2 2 2 2 1 1 2 2 1 1 1 1 1 1 1 1 1 1 1 1 1 0 0 1 1 1 1 1 1 1 1
0 0 0 0 0 0 0 0 0 0 1 1 1 1 1 1 2 2 2 3 3 3 2 2 2 2 2 1 1 1 1 1 1 1 1 1 1 1 1 1 1 1 1 1 1 1 1 1 1
0 0 0 0 0 0 0 0 0 0 1 1 2 2 3 2 2 2 3 5 5 4 3 2 2 2 2 2 2 2 2 1 1 1 1 1 1 1 1 1 1 2 2 2 2 2 2 1 1
0 0 0 0 0 0 0 0 0 1 2 3 4 4 4 4 4 5 6 7 7 6 4 3 3 2 3 3 2 2 2 2 2 2 2 2 2 2 2 2 2 3 3 3 2 2 2 2 1
0 0 0 0 0 0 0 0 1 2 4 6 7 7 7 7 8 10 11 10 8 7 6 6 5 4 4 4 4 4 4 3 3 2 2 3 3 3 3 3 3 4 4 4 3 2 2 2 2
0 0 0 0 0 0 0 1 1 2 5 7 8 8 9 10 11 13 13 12 9 8 8 8 7 5 4 4 5 5 4 4 3 3 3 4 4 5 5 5 4 4 4 4 3 3 2 2 2
0 0 0 0 0 0 0 1 1 2 4 6 7 9 10 11 11 12 11 10 9 8 8 8 7 6 5 5 5 5 4 4 3 3 3 4 5 6 6 6 5 5 4 4 3 3 3 2 2
0 0 0 0 0 0 0 1 1 2 3 5 7 10 11 11 11 9 8 7 6 6 7 7 6 6 5 5 5 5 4 4 4 3 3 3 4 5 6 7 7 7 5 4 3 3 3 3 2
0 0 0 0 0 0 0 0 1 2 3 6 8 10 12 11 9 8 6 5 5 5 6 5 5 5 5 6 6 6 5 5 4 4 4 3 3 4 6 7 8 8 6 4 4 4 3 3 3
0 0 0 0 0 0 0 0 1 2 4 6 8 10 10 9 7 6 5 4 4 5 5 4 4 4 4 5 5 5 5 5 5 4 4 3 3 4 5 6 6 7 6 4 4 5 4 4 4
0 0 0 0 0 0 0 0 1 2 4 6 7 8 8 6 5 3 3 3 3 3 3 3 3 3 3 3 4 4 4 4 4 4 4 4 3 3 4 4 4 5 5 4 4 5 5 4 4
0 0 0 0 0 0 0 0 0 1 3 5 5 5 4 4 3 2 1 2 2 2 3 3 2 2 2 2 3 3 3 3 3 3 3 3 3 3 3 4 4 5 5 4 4 5 5 5 4
0 0 0 0 0 0 0 0 0 1 2 3 4 3 2 2 1 1 1 1 1 2 2 3 3 3 2 2 2 3 2 2 2 2 2 3 3 3 3 4 4 4 4 4 4 5 5 5 4
0 0 0 0 0 0 0 0 0 0 1 2 2 2 2 1 1 1 1 1 1 2 3 3 3 3 2 2 2 2 2 2 1 1 1 2 2 3 3 4 4 4 4 4 4 4 4 4 4
0 0 0 0 0 0 0 0 0 0 0 1 1 1 1 1 1 1 1 1 2 2 3 3 3 2 2 2 2 2 2 1 1 1 1 1 2 2 3 3 3 4 4 4 4 3 3 3 3
0 0 0 0 0 0 0 0 0 0 0 1 1 1 1 1 1 1 1 1 2 2 2 2 2 2 2 2 2 2 2 1 1 1 1 1 1 2 2 3 3 4 4 4 3 3 3 3 2
0 0 0 0 0 0 0 0 0 0 0 1 1 1 0 0 0 0 1 1 1 1 1 2 2 2 2 2 2 2 2 2 1 1 1 1 1 1 2 2 3 4 4 3 2 2 2 2 2
0 0 0 0 0 0 0 0 0 0 0 0 0 0 0 0 0 0 0 0 0 1 1 1 1 2 2 2 2 2 2 2 2 1 1 1 1 1 1 2 3 3 3 3 2 2 2 2 1
0 0 0 0 0 0 0 0 0 0 0 0 0 0 0 0 0 0 0 0 0 0 1 1 1 1 1 1 1 1 1 1 2 1 1 1 1 1 1 1 2 3 3 2 2 1 1 1 1
0 0 0 0 0 0 0 0 0 0 0 0 0 0 0 0 0 0 0 0 0 1 1 1 1 1 1 1 1 1 1 1 1 1 1 1 1 1 1 1 2 3 2 2 1 1 1 1 1
Wind_Speed
3 4 3 1 2 4 2 1 5 7 7 7 10 10 7 5 3 4 5 16 18 16 13 17 19 19 18 17 16 15 14 14 14 13 13 12 12 11 11 10 10 10 9 9 9 8 8 8 7
2 3 2 2 4 4 3 1 5 6 8 9 10 8 7 6 8 10 7 15 20 17 11 14 20 19 19 17 16 15 15 14 13 13 12 12 11 10 10 9 9 8 8 8 8 7 7 6 6
3 2 2 3 2 1 3 2 3 5 7 7 6 5 5 7 9 7 10 18 17 14 10 15 22 20 19 17 16 15 15 14 14 13 12 12 11 10 10 9 8 8 8 7 7 7 7 6 6
1 2 3 4 3 4 4 4 1 6 7 6 8 6 4 5 7 12 19 19 17 12 10 14 21 20 19 18 16 15 15 14 14 13 12 12 11 11 10 10 9 8 8 7 7 7 7 7 6
3 3 4 2 4 4 3 4 2 6 5 6 9 6 4 5 17 22 19 19 18 13 10 13 20 19 19 18 17 15 15 14 14 13 13 12 12 11 11 10 10 9 8 8 7 7 7 7 7
2 4 3 3 5 4 3 4 4 9 8 9 9 6 3 10 18 19 18 16 17 16 12 11 20 19 18 18 17 16 15 15 14 14 13 12 12 12 11 11 11 10 10 9 9 9 8 8 8
3 2 2 4 4 3 3 3 7 8 8 8 10 7 5 11 15 17 16 15 15 15 13 10 11 14 18 18 17 16 15 15 14 14 13 13 13 12 12 12 12 12 12 11 11 11 11 10 10
4 3 3 4 3 3 5 1 5 9 6 9 9 10 8 10 15 15 13 13 13 12 11 9 9 8 9 11 17 17 16 16 15 15 14 14 13 13 13 11 12 14 14 14 14 13 13 12 11
2 4 2 3 3 5 6 3 2 3 6 4 4 7 10 15 16 16 12 10 10 11 9 9 9 8 7 7 13 14 16 15 15 13 15 13 7 7 8 12 15 16 16 16 16 15 15 13 13
4 3 6 6 4 4 6 4 3 5 7 6 7 7 13 14 16 17 16 15 13 13 11 10 10 9 8 9 7 5 7 7 7 6 7 6 5 6 9 11 18 18 18 18 18 17 15 12 6
3 6 7 7 5 3 4 6 4 6 4 7 12 15 15 13 12 13 14 16 15 14 14 12 11 10 10 6 5 4 4 4 6 7 8 6 5 5 7 5 9 12 15 10 10 11 8 7 6
4 8 8 7 5 4 3 4 4 1 6 10 16 18 17 15 14 13 13 14 13 14 14 13 12 11 11 7 6 6 5 5 6 8 9 7 5 6 6 6 6 6 6 7 7 5 7 8 8
6 7 6 5 6 5 4 4 3 3 3 9 12 13 15 15 13 10 10 12 12 13 13 13 12 12 11 9 6 8 7 7 8 8 9 10 8 8 8 6 6 7 6 7 7 7 7 8 8
5 5 5 6 7 4 3 6 3 5 4 9 12 12 11 12 12 9 7 8 11 11 11 12 13 12 10 9 8 7 7 7 7 8 10 12 10 9 8 7 7 7 7 7 7 8 7 7 6
6 6 9 7 5 4 4 7 6 6 4 7 10 9 6 5 6 7 7 6 6 6 7 9 10 10 10 9 9 7 7 7 7 8 10 12 11 10 9 8 7 7 6 7 5 6 5 5 5
6 5 6 9 5 7 3 6 8 2 7 8 9 9 9 7 7 6 7 6 4 3 4 4 6 7 8 7 6 5 5 5 5 5 6 10 12 12 9 8 7 6 5 5 5 4 4 4 4
5 3 7 12 7 5 6 5 4 3 12 11 11 12 13 13 12 10 10 8 6 4 3 3 2 4 5 4 4 5 4 4 4 4 4 6 9 10 9 7 6 5 4 4 4 3 3 3 4
5 5 5 6 7 4 6 2 1 5 12 11 11 12 13 13 10 10 10 8 6 6 5 3 2 1 1 2 3 4 5 5 5 4 5 6 5 7 7 6 6 5 3 3 3 3 3 3 3
5 3 4 5 7 6 5 3 4 4 7 9 8 10 12 10 8 8 8 8 7 5 6 4 3 2 1 1 2 4 5 5 5 5 7 6 6 6 6 6 5 5 5 5 5 4 4 4 3
2 3 4 5 7 6 5 5 6 6 2 6 8 9 10 8 6 6 7 6 7 6 6 5 4 2 1 1 2 3 4 4 4 4 5 6 6 6 6 7 6 6 5 6 7 6 4 4 4
4 2 2 3 5 6 5 7 7 6 7 7 6 6 8 9 7 5 5 5 5 5 5 4 3 2 1 1 1 2 2 3 3 4 4 5 6 6 6 6 6 6 6 6 7 6 6 5 4
2 2 4 5 5 4 3 3 6 3 5 4 4 4 5 6 6 5 5 4 4 4 4 4 3 3 1 1 1 1 2 3 4 4 4 5 5 5 5 5 5 6 6 6 7 7 6 6 5
1 2 4 4 3 4 4 1 7 1 2 3 4 5 5 6 6 6 6 6 5 5 5 4 4 2 1 1 1 0 2 3 4 4 5 5 5 5 4 4 4 5 5 7 7 6 7 6 6
3 7 8 7 5 2 3 1 7 4 5 4 4 5 6 7 7 7 6 6 5 5 4 4 3 2 1 1 0 0 2 4 5 5 5 5 4 4 4 4 4 4 5 6 7 6 6 6 6
7 7 6 7 6 4 3 0 7 7 5 7 8 8 9 8 7 7 7 7 6 6 5 4 4 3 2 1 1 1 2 3 4 5 5 5 4 4 5 4 4 4 5 5 5 6 6 6 6
1 8 6 3 4 6 4 1 7 5 5 6 8 8 8 8 8 9 9 8 7 7 6 5 5 4 3 2 1 1 1 2 3 4 4 4 4 4 5 5 5 5 5 5 4 4 5 4 5
1 2 8 7 1 2 4 3 5 3 3 6 7 7 8 8 9 8 7 7 7 7 7 7 6 4 4 3 2 1 1 2 3 4 4 3 4 5 5 5 4 3 3 2 3 3 4 4 4
3 3 5 4 1 3 6 4 4 6 8 8 8 8 9 7 6 5 5 6 6 7 6 6 6 6 4 3 2 1 1 1 2 2 4 4 5 5 5 5 4 3 2 1 1 2 3 4 3
2 1 3 3 5 5 3 7 6 6 6 6 6 4 3 3 3 4 5 5 6 6 6 6 6 5 4 4 3 2 2 1 1 1 3 3 4 5 4 4 3 2 1 0 1 2 3 4 4
2 2 5 3 5 5 4 7 9 5 5 5 5 5 6 5 3 1 3 3 4 6 6 6 6 6 5 5 4 3 2 1 1 1 2 3 3 4 4 3 2 2 1 1 2 4 5 6 6
Wind_Direction
225 186 151 105 48 31 353 18 92 73 62 72 78 81 82 67 124 145 124 140 139 146 153 153 153 153 151 149 148 146 144 142 139 138 137 137 135 133 131 130 129 127 126 125 125 123 120 118 117
242 186 134 53 59 23 326 353 89 110 133 113 83 84 84 79 92 108 123 144 142 146 150 153 155 154 153 153 152 151 151 150 149 149 149 149 149 148 146 144 142 140 139 139 140 140 139 140 142
241 193 109 50 34 245 276 277 102 104 119 107 89 62 78 114 115 125 145 143 140 145 149 157 156 156 155 156 157 157 157 158 158 159 161 162 163 163 162 161 161 158 156 157 158 159 160 164 170
194 56 42 46 305 260 234 257 247 97 84 82 98 70 51 110 125 136 141 144 143 146 150 159 157 158 158 159 161 163 164 166 167 168 170 172 174 176 177 176 177 176 176 177 178 178 181 185 192
93 74 44 343 263 268 236 235 219 106 89 86 92 85 41 42 118 134 145 149 148 148 154 160 160 161 161 162 165 168 170 173 175 176 178 181 183 186 186 187 189 191 193 195 195 198 200 204 210
50 66 51 291 282 282 256 214 144 108 115 114 104 103 79 124 131 145 149 152 152 152 157 162 165 165 166 167 169 173 176 179 182 184 187 189 191 193 195 196 198 201 206 210 212 213 216 218 221
121 94 248 275 277 281 273 158 130 130 142 146 130 109 123 149 149 151 150 149 151 155 159 164 168 169 171 172 174 178 182 185 188 191 193 196 198 201 204 205 206 210 214 218 221 223 224 226 227
149 94 325 307 301 305 301 14 138 133 138 134 127 134 161 174 149 148 145 145 150 158 165 167 168 169 172 176 181 184 187 191 194 197 199 202 204 207 211 212 215 218 221 224 226 228 229 230 231
100 74 280 265 304 302 319 5 353 87 93 89 107 146 159 152 140 140 140 143 153 161 170 172 172 172 174 179 189 189 193 197 199 203 205 206 211 214 217 221 222 225 227 229 231 233 234 235 237
105 155 236 235 269 295 334 9 358 69 74 76 79 100 133 143 146 149 155 161 166 170 177 180 180 179 178 188 188 191 198 203 204 205 211 208 208 217 223 230 231 231 232 234 235 237 239 240 240
195 216 246 269 274 302 340 349 11 97 111 160 152 149 151 152 157 159 162 169 174 175 179 182 185 184 185 196 186 194 203 203 211 214 216 216 216 224 230 230 237 237 237 236 238 238 235 235 237
256 270 271 272 295 314 310 330 348 122 192 185 163 158 161 164 170 170 166 171 172 175 184 182 184 187 192 197 193 194 203 206 212 219 218 215 220 225 228 230 229 226 227 225 227 229 231 235 240
269 269 286 299 327 312 311 310 308 293 181 160 158 161 169 172 174 174 164 162 170 179 186 183 186 191 194 197 198 198 207 212 214 217 219 217 218 224 227 229 228 225 219 218 221 225 232 235 239
269 290 307 311 320 312 323 311 323 273 167 152 162 175 179 175 169 161 156 156 168 177 182 182 189 195 194 197 201 203 206 215 219 220 220 218 220 224 226 229 225 221 214 214 216 221 225 230 233
311 330 328 309 302 286 7 323 283 259 132 147 160 163 156 148 146 158 163 153 159 166 170 176 192 199 199 203 203 203 206 210 216 222 224 222 221 223 224 227 225 220 209 205 209 216 217 225 228
354 7 320 293 284 272 150 255 279 349 95 110 120 114 103 91 96 108 104 93 104 136 147 156 190 204 209 216 220 220 216 216 222 223 225 225 224 224 223 225 226 217 203 196 201 204 209 225 228
4 325 287 292 281 247 157 210 272 75 97 101 105 104 98 91 83 87 91 91 90 104 122 145 183 198 207 228 243 250 255 251 249 242 234 229 227 226 225 226 225 212 207 208 213 209 208 228 238
263 275 293 304 321 58 103 131 32 76 108 112 108 105 99 94 92 96 99 99 93 91 95 112 106 78 179 229 266 275 270 264 260 255 254 249 239 232 226 230 225 209 202 218 217 221 226 230 238
240 277 308 318 339 49 59 46 15 48 99 114 114 111 107 106 111 106 103 104 100 91 90 89 89 91 129 208 231 246 255 258 261 257 256 254 249 240 229 231 219 207 208 215 216 216 230 239 222
328 8 351 346 356 36 25 15 8 26 69 134 128 123 117 115 111 110 111 110 106 105 102 95 93 109 133 211 235 246 256 262 257 265 270 266 261 252 245 233 221 210 215 219 221 214 213 229 200
4 62 42 4 1 25 43 355 351 2 57 84 95 116 126 131 129 122 112 113 110 112 120 124 133 132 142 213 260 300 309 308 308 299 290 284 278 266 250 237 225 215 214 225 223 215 210 224 222
321 345 36 22 33 329 48 322 306 348 67 90 113 127 139 136 136 141 141 137 137 148 148 150 156 154 159 129 70 330 309 295 286 287 287 293 288 283 269 249 231 222 216 219 223 216 210 213 226
251 15 20 355 1 352 357 65 285 344 153 194 188 177 176 175 167 172 178 175 177 176 173 172 169 177 185 155 137 328 296 282 288 296 302 302 298 291 283 263 244 233 227 226 224 221 213 210 215
58 33 11 25 54 6 280 196 282 253 222 201 208 205 204 201 193 193 197 190 194 192 183 175 172 194 213 195 256 300 298 302 310 312 310 305 299 296 294 281 261 246 234 227 225 220 214 209 211
63 67 25 3 9 278 279 191 260 263 205 188 201 211 216 210 201 203 206 205 206 199 190 178 170 196 215 208 249 276 292 302 300 302 305 307 305 300 298 292 272 260 249 237 223 214 210 202 202
110 125 145 194 240 283 328 253 263 259 199 200 210 216 219 217 212 210 209 205 203 196 186 181 181 196 203 194 227 268 290 296 295 298 300 302 299 294 295 293 280 267 258 245 218 208 205 199 201
173 197 169 146 248 309 295 279 297 292 253 232 231 227 227 225 220 217 213 202 195 185 187 184 179 186 190 189 202 243 275 301 306 310 311 305 302 301 304 300 293 287 270 246 207 200 196 182 186
177 170 82 92 156 284 299 294 256 241 246 245 238 237 243 243 238 224 206 196 191 188 187 179 177 183 188 187 200 207 242 281 298 314 317 312 309 309 308 304 304 304 305 285 203 190 184 168 159
319 54 113 139 167 168 262 277 268 244 242 236 245 255 261 263 244 219 211 202 194 187 182 180 181 180 185 190 193 196 229 251 283 302 307 307 309 311 308 307 309 312 314 299 120 129 133 129 115
175 182 149 161 244 192 192 271 329 355 9 21 15 22 21 15 3 287 244 218 202 197 195 192 191 191 197 195 192 197 203 211 240 292 308 313 315 319 317 318 330 344 8 56 92 101 100 103 102